Regional Weather Roundup
Issued by NWS

Home | Current Version | Previous Version | Graphics & Text | Print | Product List | Glossary On
Versions: 1 2 3 4 5 6 7 8 9 10 11 12 13 14 15 16 17 18 19 20 21 22 23 24 25 26 27 28 29 30 31 32 33 34 35 36 37 38 39 40 41 42 43 44 45 46 47 48 49 50
000
ASUS45 KABQ 252010
RWRNM
NEW MEXICO REGIONAL WEATHER ROUNDUP
NATIONAL WEATHER SERVICE ALBUQUERQUE NM
200 PM MDT SUN JUN 25 2017

NOTE: "FAIR" MEANS FEW OR NO CLOUDS BELOW 12,000 FEET AGL WITH NO
       SIGNIFICANT WEATHER OR OBSTRUCTIONS TO VISION.

      THIS PRODUCT IS RELEASED AS TWO VERSIONS.  ONE VERSION NEAR
      THE TOP OF THE HOUR CONTAINING PRELIMINARY DATA FROM ALBUQUERQUE
      AND OTHER STATIONS.  A FINAL VERSION WITH ADDITIONAL DATA IS
      ISSUED ABOUT 10 MINUTES AFTER THE HOUR.

NMZ501-503-504-510>518-252100-
NORTHWEST PLATEAU/NORTHCENTRAL MOUNTAINS

CITY           SKY/WX    TMP DP  RH WIND       PRES   REMARKS
FARMINGTON     FAIR      91  30  11 VRB6      30.19F
LOS ALAMOS     FAIR      78  49  36 S16G23    30.37F
SANTA FE       FAIR      85  52  32 SW9       30.30F
TAOS           FAIR      81  46  30 W7G20     30.36F
ANGEL FIRE     FAIR      73  43  35 SW13G18   30.45F

$$
NMZ402-403-502-505>509-252100-
WESTCENTRAL MOUNTAINS/SOUTHWEST MOUNTAINS

CITY           SKY/WX    TMP DP  RH WIND       PRES   REMARKS
GALLUP         FAIR      91  34  13 W17G28    30.27F
GRANTS         FAIR      76  46  34 NE13      30.28F THUNDER
SILVER CITY    FAIR      83  52  33 SE10G17   30.28F

$$
NMZ407-409-411-412-252100-
SOUTHERN DESERTS

CITY           SKY/WX    TMP DP  RH WIND       PRES   REMARKS
DEMING         FAIR      89  54  30 S12       30.21F
LAS CRUCES     FAIR      91  53  28 SE10G16   30.23F
HOLLOMAN AFB   FAIR      92  55  28 S13G21    30.18F
ALAMOGORDO     FAIR      91  54  27 S15G22    30.19F
T OR C         FAIR      90  47  22 S13G18    30.20F

$$
NMZ519>523-252100-
CENTRAL VALLEYS/CENTRAL HIGHLANDS

CITY           SKY/WX    TMP DP  RH WIND       PRES   REMARKS
ALBUQUERQUE    PTSUNNY   87  48  25 VRB3      30.23F
DOUBLE EAGLE   MOSUNNY   88  50  27 S8G17     30.27F
MORIARTY ARPT  FAIR      88  49  26 SW5G13    30.31F
CLINES CORNERS FAIR      83  49  30 S17       30.38F
BELEN          FAIR      90  47  22 SE13      30.21F
SOCORRO        FAIR      92  48  21 S17G25    30.19F

$$
NMZ524>526-539-540-252100-
SOUTHCENTRAL MOUNTAINS

CITY           SKY/WX    TMP DP  RH WIND       PRES   REMARKS
RUIDOSO        FAIR      73  57  56 SE15G23   30.42F

$$
NMZ527>531-252100-
NORTHEAST HIGHLANDS/NORTHEAST PLAINS

CITY           SKY/WX    TMP DP  RH WIND       PRES   REMARKS
LAS VEGAS      FAIR      78  55  44 S24G31    30.36F
RATON          FAIR      79  57  46 S14G22    30.31F
CLAYTON        CLOUDY    71  63  75 SW13      30.30F

$$
NMZ532>537-252100-
EASTCENTRAL PLAINS

CITY           SKY/WX    TMP DP  RH WIND       PRES   REMARKS
SANTA ROSA     FAIR      80  60  50 S15G21    30.26F
TUCUMCARI      PTSUNNY   81  64  56 S17       30.25F
CANNON AFB     FAIR      77  66  69 S15       30.30F
CLOVIS AIRPORT FAIR      78  64  61 S16G23    30.30F

$$
NMZ028-029-538-252100-
SOUTHEAST PLAINS

CITY           SKY/WX    TMP DP  RH WIND       PRES   REMARKS
ROSWELL        FAIR      89  60  37 SE12G25   30.21F
ARTESIA        FAIR      88  61  40 SE18G25   30.20F
CARLSBAD       FAIR      89  60  37 E18       30.17F
HOBBS          PTSUNNY   82  63  51 E10G18    30.26F


$$



USA.gov is the U.S. government's official web portal to all federal, state and local government web resources and services.